Location: Cabeza de los Veneras
(40.2000°N, 5.2000°W)
Time: 03:29:39
(UTC+00:00)

ERS-1 Rocket - Pass Details

Date: 18 April 2024
Orbit: 751 x 754 km, 98.3° (Epoch: 25 May)

Event Time Altitude Azimuth Distance (km) Brightness Sun altitude
Exits shadow 21:31:49 80° 102° (ESE) 767 2.8 -25.5°
Maximum altitude 21:31:57 81° 76° (ENE) 765 2.8 -25.5°
Drops below altitude 10° 21:36:58 10° 349° (N) 2,283 6.1 -26.2°
Sets 21:39:17 0° 349° (NNW) 3,212 7.1 -26.5°
